STARLINK-35303, 65860

Orbit data source: Space-Track

STARLINK-35303, 65860 is a payload satellite owned by SpaceX/Seattle (US) in LEO that was launched on Fri, 03 Oct 2025 UTC via an FALCON 9 launch vehicle from the Air Force Western Test Range (AFWTR). Payload-class satellites include a variety of spacecraft equipped with specific instruments for various scientific and technological missions. These include communications satellites like Starlink; space stations such as the ISS; scientific satellites like the Hubble; Earth observation satellites from companies like Planet Labs, Umbra, and HawkEye 360; GPS; miniature CubeSats for education and research; and military/defense satellites.

Loading next visibility...
Identifier
65860, 2025-223G
Orbit
LEO
Country
Flag of USUS
Related business
Manufacturer
SpaceX/Seattle
Mission
Operational spacecraft
Bus & Motor
STARLINK V2MO, Unknown motor
Mass
575 kg wet, ~530 kg dry
Launch date (UTC)
2025-10-03 (2 weeks ago)
Launch vehicle
FALCON 9
Launch site
Air Force Western Test Range (AFWTR)
Object type
Payload
Rocket body
Debris
Shape & HBR
Unknown shape, 17.7 m
Radar Cross Section
RCS unknown

Expand to show TLE details & history
Last TLE update: 8 hours ago

TLE from 8 hours ago
0 STARLINK-35303
1 65860U 25223G   25290.76459939  .00889916  00000-0  54043-2 0  9998
2 65860  53.1549 242.2786 0013513 235.7549 124.2191 15.74396289  2267
Epoch: 2025-10-17T18:21Z
TLE epoch observation values (Epoch: 2025-10-17T18:21:01.387Z)
Latitude
-0.00005°
Longitude
-59.4825°
Altitude
352.384 km
Speed
7.696 km/s
True Right ascension
16h 09m 06s
True Declination
0° 00' 00"
Sunlit
Object was in daylight at epoch
Visualization orbit readout
Latitude
Unknown
Longitude
Unknown
Altitude
Unknown
Speed
Unknown
Apparent Right ascension
Unknown
Apparent Declination
Unknown
Sunlit
N/A
Visualization observer readout
Local Sidereal Time
21:26:38
Azimuth
Unknown
Elevation
Unknown
Doppler factor
Unknown
Orbital elements
Apogee altitude
355.699 km
Perigee altitude
337.525 km
Semi-major axis
6,724.749 km
Eccentricity
0.00135
Inclination
53.1549°
RAAN
242.2786°
Arg. of periapsis
235.7549°
True anomaly
124.34702°
Mean anomaly
124.2191°
Eccentric anomaly
124.28307°
Mean motion
3.93576 °/min
Orbital period
91.47 mins
BSTAR
0.0054043
Loading maneuver chart data...
Computing Atmospheric mass density...
Loading historical data...
Loading historical data...
Loading historical data...
Loading historical data...
Loading historical data...
Loading historical data...
Loading historical data...

Documentation

Showing up to 5 results
|